Showing default

COSMOS 2245, 22646

Orbit data source: Space-Track

COSMOS 2245, 22646 is a payload satellite owned by VKS (CIS) in LEO that was launched on Tue, 11 May 1993 UTC via a TSIKLON-3 launch vehicle from the Plesetsk Missile And Space Complex (PKMTR). Payload-class satellites include a variety of spacecraft equipped with specific instruments for various scientific and technological missions. These include communications satellites like Starlink; space stations such as the ISS; scientific satellites like the Hubble; Earth observation satellites from companies like Planet Labs, Umbra, and HawkEye 360; GPS; miniature CubeSats for education and research; and military/defense satellites.

Loading next visibility...
Identifier
22646, 1993-030A
Orbit
LEO
Country
Flag of CISCIS
Related business
Manufacturer
NPO PM
Mission
Defense Communications
Bus & Motor
STRELA-3, Unknown motor
Mass
225 kg wet, 225 kg dry
Launch date (UTC)
1993-05-11 (32 years ago)
Launch vehicle
TSIKLON-3
Launch site
Plesetsk Missile And Space Complex (PKMTR)
Object type
Payload
Rocket body
Debris
Shape & HBR
Cyl, 0.8 m
Radar Cross Section
1.257 m², Medium (>0.1 m² and < 1m²)

Expand to show TLE details & history
Last TLE update: 21 hours ago

TLE from 21 hours ago
0 COSMOS 2245
1 22646U 93030A   25309.19005917  .00000011  00000-0 -98157-6 0  9995
2 22646  82.5818  93.5172 0012274  52.5183 120.8367 12.64068604498770
Epoch: 2025-11-05T04:33Z
TLE epoch observation values (Epoch: 2025-11-05T04:33:41.112Z)
Latitude
6.39778°
Longitude
159.59724°
Altitude
1,413.235 km
Speed
7.152 km/s
True Right ascension
18h 10m 44s
True Declination
6° 21' 47"
Sunlit
Object was in daylight at epoch
Visualization orbit readout
Latitude
Unknown
Longitude
Unknown
Altitude
Unknown
Speed
Unknown
Apparent Right ascension
Unknown
Apparent Declination
Unknown
Sunlit
N/A
Visualization observer readout
Local Sidereal Time
21:46:41
Azimuth
Unknown
Elevation
Unknown
Doppler factor
Unknown
Orbital elements
Apogee altitude
1,413.065 km
Perigee altitude
1,393.963 km
Semi-major axis
7,781.651 km
Eccentricity
0.00123
Inclination
82.5818°
RAAN
93.5172°
Arg. of periapsis
52.5183°
True anomaly
120.95737°
Mean anomaly
120.8367°
Eccentric anomaly
120.89705°
Mean motion
3.16181 °/min
Orbital period
113.86 mins
BSTAR
-9.8157e-7
Loading maneuver chart data...
Computing Atmospheric mass density...
Loading historical data...
Loading historical data...
Loading historical data...
Loading historical data...
Loading historical data...
Loading historical data...
Loading historical data...

Documentation

Showing up to 5 results
|